EN

Hourly Weather Kyzylzhar

Today, 5 August, Thursday

Time Temperature Precipitation Wind Pressure Humidity
00:00 +20°C° 0 mm 3 mps 663 mmHg 47%
01:00 +20°C° 0 mm 3 mps 663 mmHg 49%
02:00 +19°C° 0 mm 3 mps 663 mmHg 51%
03:00 +19°C° 0.3 mm 3 mps 663 mmHg 54%
04:00 +19°C° 0.3 mm 3 mps 663 mmHg 57%
05:00 +18°C° 0 mm 3 mps 663 mmHg 60%
06:00 +20°C° 0.3 mm 3 mps 664 mmHg 55%
07:00 +23°C° 0.3 mm 2 mps 664 mmHg 51%
08:00 +25°C° 0.3 mm 2 mps 664 mmHg 47%
09:00 +26°C° 0.1 mm 3 mps 664 mmHg 41%
10:00 +28°C° 0.1 mm 4 mps 665 mmHg 36%
11:00 +29°C° 0.1 mm 5 mps 665 mmHg 31%
12:00 +30°C° 0 mm 5 mps 665 mmHg 29%
13:00 +30°C° 0 mm 6 mps 665 mmHg 27%
14:00 +30°C° 0 mm 6 mps 664 mmHg 25%
15:00 +30°C° 0 mm 6 mps 664 mmHg 25%
16:00 +29°C° 0 mm 5 mps 664 mmHg 25%
17:00 +29°C° 0 mm 5 mps 664 mmHg 25%
18:00 +26°C° 0 mm 4 mps 664 mmHg 31%
19:00 +24°C° 0 mm 3 mps 664 mmHg 36%
20:00 +20°C° 0 mm 2 mps 664 mmHg 41%
21:00 +20°C° 0 mm 2 mps 664 mmHg 42%
22:00 +19°C° 0 mm 2 mps 663 mmHg 42%
23:00 +19°C° 0 mm 2 mps 663 mmHg 43%

Tomorrow, 6 August, Friday

Time Temperature Precipitation Wind Pressure Humidity
00:00 +18°C° 0 mm 2 mps 663 mmHg 42%
01:00 +18°C° 0 mm 2 mps 662 mmHg 42%
02:00 +18°C° 0 mm 2 mps 662 mmHg 41%
03:00 +18°C° 0 mm 2 mps 662 mmHg 39%
04:00 +18°C° 0 mm 2 mps 662 mmHg 37%
05:00 +17°C° 0 mm 2 mps 662 mmHg 35%
06:00 +20°C° 0 mm 2 mps 663 mmHg 32%
07:00 +23°C° 0 mm 2 mps 664 mmHg 30%
08:00 +25°C° 0 mm 2 mps 664 mmHg 28%
09:00 +26°C° 0 mm 3 mps 664 mmHg 27%
10:00 +27°C° 0 mm 4 mps 665 mmHg 27%
11:00 +28°C° 0 mm 4 mps 665 mmHg 26%
12:00 +29°C° 0 mm 4 mps 664 mmHg 26%
13:00 +29°C° 0 mm 5 mps 664 mmHg 26%
14:00 +30°C° 0 mm 5 mps 664 mmHg 26%
15:00 +29°C° 0 mm 5 mps 664 mmHg 27%
16:00 +29°C° 0 mm 5 mps 664 mmHg 28%
17:00 +28°C° 0 mm 5 mps 664 mmHg 28%
18:00 +25°C° 0 mm 4 mps 664 mmHg 33%
19:00 +22°C° 0 mm 3 mps 664 mmHg 38%
20:00 +19°C° 0 mm 2 mps 664 mmHg 42%
21:00 +19°C° 0 mm 2 mps 664 mmHg 44%
22:00 +18°C° 0 mm 2 mps 663 mmHg 45%
23:00 +18°C° 0 mm 2 mps 663 mmHg 46%

Day after tomorrow, 7 August, Saturday

Time Temperature Precipitation Wind Pressure Humidity
00:00 +17°C° 0 mm 2 mps 663 mmHg 46%
01:00 +17°C° 0 mm 2 mps 663 mmHg 47%
02:00 +16°C° 0 mm 2 mps 662 mmHg 47%
03:00 +17°C° 0 mm 2 mps 663 mmHg 45%
04:00 +17°C° 0 mm 2 mps 663 mmHg 43%
05:00 +17°C° 0 mm 2 mps 663 mmHg 41%
06:00 +19°C° 0 mm 2 mps 663 mmHg 37%
07:00 +21°C° 0 mm 2 mps 664 mmHg 33%
08:00 +24°C° 0 mm 2 mps 665 mmHg 29%
09:00 +25°C° 0 mm 3 mps 665 mmHg 28%
10:00 +27°C° 0 mm 3 mps 665 mmHg 26%
11:00 +28°C° 0 mm 3 mps 665 mmHg 24%
12:00 +29°C° 0 mm 3 mps 665 mmHg 24%
13:00 +29°C° 0 mm 4 mps 665 mmHg 23%
14:00 +30°C° 0 mm 4 mps 665 mmHg 22%
15:00 +30°C° 0 mm 4 mps 665 mmHg 22%
16:00 +29°C° 0 mm 4 mps 664 mmHg 23%
17:00 +29°C° 0 mm 3 mps 664 mmHg 23%
18:00 +26°C° 0 mm 3 mps 664 mmHg 27%
19:00 +24°C° 0 mm 2 mps 664 mmHg 31%
20:00 +20°C° 0 mm 2 mps 663 mmHg 35%
21:00 +20°C° 0 mm 2 mps 663 mmHg 35%
22:00 +19°C° 0 mm 2 mps 663 mmHg 34%
23:00 +19°C° 0 mm 3 mps 663 mmHg 34%

8 August, Sunday

Time Temperature Precipitation Wind Pressure Humidity
00:00 +19°C° 0 mm 3 mps 663 mmHg 32%
01:00 +19°C° 0 mm 3 mps 663 mmHg 29%
02:00 +19°C° 0 mm 3 mps 663 mmHg 26%
03:00 +19°C° 0 mm 3 mps 663 mmHg 27%
04:00 +19°C° 0 mm 3 mps 663 mmHg 28%
05:00 +19°C° 0 mm 3 mps 663 mmHg 29%
06:00 +21°C° 0 mm 2 mps 664 mmHg 27%
07:00 +25°C° 0 mm 2 mps 664 mmHg 25%
08:00 +28°C° 0 mm 2 mps 665 mmHg 23%
09:00 +29°C° 0 mm 3 mps 665 mmHg 21%
10:00 +30°C° 0 mm 4 mps 665 mmHg 20%
11:00 +32°C° 0 mm 5 mps 665 mmHg 18%
12:00 +32°C° 0 mm 5 mps 665 mmHg 18%
13:00 +33°C° 0 mm 6 mps 665 mmHg 18%
14:00 +33°C° 0 mm 7 mps 665 mmHg 18%
15:00 +32°C° 0 mm 6 mps 665 mmHg 20%
16:00 +30°C° 0 mm 6 mps 665 mmHg 21%
17:00 +30°C° 0 mm 5 mps 665 mmHg 22%
18:00 +27°C° 0 mm 4 mps 665 mmHg 25%
19:00 +25°C° 0 mm 3 mps 665 mmHg 29%
20:00 +21°C° 0 mm 3 mps 665 mmHg 32%
21:00 +21°C° 0 mm 3 mps 665 mmHg 32%
22:00 +21°C° 0 mm 3 mps 664 mmHg 33%
23:00 +21°C° 0 mm 4 mps 664 mmHg 33%

9 August, Monday

Time Temperature Precipitation Wind Pressure Humidity
00:00 +21°C° 0 mm 4 mps 664 mmHg 31%
01:00 +21°C° 0 mm 4 mps 664 mmHg 30%
02:00 +21°C° 0 mm 5 mps 663 mmHg 28%
03:00 +21°C° 0 mm 5 mps 663 mmHg 28%
04:00 +21°C° 0 mm 5 mps 663 mmHg 28%
05:00 +21°C° 0 mm 5 mps 663 mmHg 27%
06:00 +25°C° 0 mm 5 mps 663 mmHg 25%
07:00 +28°C° 0 mm 5 mps 664 mmHg 22%
08:00 +30°C° 0 mm 5 mps 664 mmHg 20%
09:00 +32°C° 0 mm 6 mps 664 mmHg 20%
10:00 +32°C° 0 mm 7 mps 664 mmHg 21%
11:00 +32°C° 0 mm 8 mps 664 mmHg 21%
12:00 +32°C° 0 mm 7 mps 664 mmHg 23%
13:00 +30°C° 0 mm 7 mps 664 mmHg 25%
14:00 +30°C° 0 mm 6 mps 664 mmHg 27%
15:00 +29°C° 0.3 mm 5 mps 664 mmHg 30%
16:00 +28°C° 0.3 mm 4 mps 664 mmHg 34%
17:00 +26°C° 0.3 mm 3 mps 664 mmHg 38%
18:00 +24°C° 0.2 mm 3 mps 665 mmHg 41%
19:00 +22°C° 0.2 mm 3 mps 665 mmHg 45%
20:00 +20°C° 0.2 mm 3 mps 665 mmHg 48%
21:00 +19°C° 0.1 mm 3 mps 665 mmHg 49%
22:00 +18°C° 0.1 mm 3 mps 665 mmHg 50%
23:00 +18°C° 0.1 mm 3 mps 665 mmHg 51%

10 August, Tuesday

Time Temperature Precipitation Wind Pressure Humidity
00:00 +17°C° 0 mm 3 mps 664 mmHg 51%
01:00 +17°C° 0 mm 3 mps 664 mmHg 50%
02:00 +17°C° 0 mm 3 mps 664 mmHg 50%
03:00 +17°C° 0 mm 3 mps 664 mmHg 49%
04:00 +17°C° 0 mm 3 mps 664 mmHg 48%
05:00 +17°C° 0 mm 3 mps 664 mmHg 48%
06:00 +19°C° 0 mm 3 mps 664 mmHg 42%
07:00 +21°C° 0 mm 3 mps 665 mmHg 36%
08:00 +25°C° 0 mm 3 mps 665 mmHg 30%
09:00 +25°C° 0 mm 4 mps 665 mmHg 29%
10:00 +26°C° 0 mm 5 mps 665 mmHg 29%
11:00 +27°C° 0 mm 7 mps 665 mmHg 28%
12:00 +27°C° 0 mm 7 mps 665 mmHg 26%
13:00 +27°C° 0 mm 7 mps 665 mmHg 24%
14:00 +28°C° 0 mm 8 mps 666 mmHg 22%
15:00 +27°C° 0 mm 7 mps 666 mmHg 24%
16:00 +26°C° 0 mm 7 mps 666 mmHg 26%
17:00 +26°C° 0 mm 6 mps 666 mmHg 28%
18:00 +22°C° 0 mm 5 mps 666 mmHg 35%
19:00 +20°C° 0 mm 3 mps 666 mmHg 42%
20:00 +18°C° 0 mm 2 mps 666 mmHg 48%
21:00 +17°C° 0 mm 2 mps 665 mmHg 49%
22:00 +17°C° 0 mm 2 mps 665 mmHg 49%
23:00 +17°C° 0 mm 2 mps 665 mmHg 50%
Show more